[[{"header":{"parameterUnit":"m.s-1","parameterCategory":1,"la1":30.2991,"la2":30.254,"lo1":-89.0895,"lo2":-89.0444,"dy":0.0017,"dx":0.0017,"nx":28,"ny":28,"refTime":"2024-03-16T21:00:00:Z","depth":0,"parameterNumber":2,"parameterNumberName":"U-component_of_WINDS"},"data":[0,0,0,0,0,0,0,0,0,0,0,0,0,0,0,0,0,0,0,0,0,0,0,0,0,0,0,0,0,0,0,0,0,0,0,0,0,0,0,0,0,0,0,0,0,0,0,0,0,0,0,0,0,0,0,0,0,0,-0.8535,-0.8535,0,-0.8508,-0.8508,-0.8508,-0.8494,-0.8494,-0.8494,-0.8494,-0.8465,-0.8464,-0.8463,0,0,0,0,0,0,0,0,0,0,0,0,0,-0.8574,-0.8573,-0.8535,-0.8535,-0.8534,-0.8508,-0.8508,-0.8507,-0.8494,-0.8494,-0.8494,-0.8494,-0.8465,-0.8464,-0.8463,0,0,0,0,0,0,0,0,0,0,0,0,0,-0.8553,-0.8573,-0.8535,-0.8524,-0.8523,-0.8508,-0.8508,-0.8507,-0.8494,-0.8494,-0.8494,-0.8494,-0.8465,-0.8464,-0.8463,-0.8456,0,0,-0.846,-0.8459,0,0,0,0,0,0,0,0,-0.8554,-0.8551,-0.8526,-0.8525,-0.8524,-0.8504,-0.8511,-0.849,-0.8494,-0.8505,-0.8494,-0.8494,-0.8478,-0.8476,-0.8471,-0.8455,-0.8454,-0.8459,-0.8459,-0.8458,-0.8458,0,0,0,0,0,0,0,-0.8556,-0.8553,-0.8524,-0.8526,-0.8524,-0.8521,-0.8518,-0.8507,-0.8492,-0.8504,-0.8503,-0.85,-0.8477,-0.8472,-0.847,-0.8453,-0.846,-0.8459,-0.8458,-0.8457,-0.8433,-0.8433,0,0,0,0,0,0,-0.8559,-0.8554,-0.8525,-0.8524,-0.8539,-0.852,-0.8517,-0.851,-0.8492,-0.8489,-0.85,-0.8499,-0.8474,-0.8471,-0.8469,-0.8461,-0.8458,-0.8457,-0.8457,-0.8433,-0.8433,-0.8433,0,0,0,0,0,0,-0.856,-0.8556,-0.8526,-0.8538,-0.8534,-0.8519,-0.8513,-0.851,-0.8505,-0.8489,-0.8486,-0.8497,-0.8474,-0.847,-0.846,-0.8459,-0.8457,-0.8456,-0.8433,-0.8433,-0.8433,-0.8444,0,0,0,0,0,0,-0.8561,-0.8557,-0.8554,-0.8538,-0.8534,-0.8518,-0.8512,-0.8509,-0.8503,-0.8502,-0.8486,-0.8483,-0.8473,-0.8462,-0.8459,-0.8458,-0.8455,-0.8433,-0.8433,-0.8433,-0.8443,-0.8444,-0.8445,0,0,0,0,0,-0.8562,-0.8558,-0.8554,-0.8551,-0.853,-0.8518,-0.8515,-0.8505,-0.8503,-0.85,-0.849,-0.8483,-0.846,-0.8461,-0.8457,-0.8456,-0.8432,-0.8433,-0.8433,-0.8443,-0.8444,-0.8445,0,0,0,0,0,0,-0.8573,-0.8555,-0.8551,-0.8541,-0.8531,-0.8516,-0.8512,-0.8506,-0.8496,-0.8495,-0.8482,-0.8479,-0.847,-0.8462,-0.8463,-0.8449,-0.8446,-0.8445,-0.8455,-0.8456,-0.8456,-0.8458,-0.8454,0,0,0,0,0,-0.8574,-0.8566,-0.8551,-0.8544,-0.8539,-0.8527,-0.8521,-0.8514,-0.8503,-0.8498,-0.8487,-0.8477,-0.8467,-0.8461,-0.8451,-0.8442,-0.8439,-0.844,-0.8441,-0.8441,-0.8441,-0.8437,-0.8437,-0.8433,-0.8433,-0.8433,0,0,-0.8576,-0.8566,-0.8561,-0.8546,-0.8537,-0.8529,-0.8523,-0.8514,-0.8508,-0.8497,-0.8487,-0.8479,-0.8466,-0.8457,-0.8452,-0.845,-0.8442,-0.8441,-0.8442,-0.8441,-0.8437,-0.8437,-0.8438,-0.8433,-0.8433,-0.8433,0,0,-0.8577,-0.8568,-0.8561,-0.8553,-0.8541,-0.8533,-0.8531,-0.8517,-0.8511,-0.8501,-0.8493,-0.8485,-0.8469,-0.846,-0.8454,-0.8453,-0.8446,-0.845,-0.8454,-0.845,-0.845,-0.845,-0.8451,-0.8451,-0.8449,-0.845,-0.845,0,-0.8581,-0.8569,-0.8559,-0.8551,-0.8545,-0.8535,-0.8529,-0.8521,-0.8506,-0.8502,-0.85,-0.848,-0.847,-0.8459,-0.8459,-0.8454,-0.8453,-0.8451,-0.8451,-0.8451,-0.8451,-0.8451,-0.8452,-0.845,-0.845,-0.845,-0.845,0,-0.8575,-0.8567,-0.8563,-0.855,-0.8543,-0.8536,-0.8525,-0.852,-0.8514,-0.8506,-0.8496,-0.8485,-0.8473,-0.847,-0.8463,-0.8459,-0.8458,-0.8454,-0.845,-0.8452,-0.8452,-0.8452,-0.8451,-0.8451,-0.845,-0.845,0,0,-0.858,-0.8562,-0.8561,-0.8555,-0.8542,-0.8535,-0.8528,-0.8517,-0.8513,-0.8503,-0.8498,-0.8485,-0.8481,-0.8474,-0.8466,-0.8463,-0.8464,-0.8459,-0.8459,-0.8461,-0.8459,-0.8463,-0.8463,-0.846,-0.846,-0.846,-0.8461,0,-0.8578,-0.8566,-0.8557,-0.8548,-0.8541,-0.8532,-0.8526,-0.8517,-0.851,-0.8503,-0.8495,-0.8486,-0.8482,-0.8477,-0.8474,-0.8465,-0.8464,-0.8465,-0.8455,-0.8454,-0.8458,-0.8463,-0.8466,-0.8467,-0.846,-0.846,-0.846,0,-0.8574,-0.8566,-0.8556,-0.8545,-0.8541,-0.8536,-0.8527,-0.852,-0.851,-0.8505,-0.8498,-0.8491,-0.8483,-0.8481,-0.8471,-0.8472,-0.8467,-0.8462,-0.8462,-0.8461,-0.8458,-0.8462,-0.8467,-0.8467,-0.846,-0.846,-0.846,0,-0.8579,-0.8566,-0.8559,-0.8554,-0.854,-0.8537,-0.8531,-0.8521,-0.8516,-0.8507,-0.8504,-0.8494,-0.8489,-0.8482,-0.8473,-0.8471,-0.8464,-0.846,-0.846,-0.846,-0.8459,-0.8459,-0.8463,-0.8456,-0.8456,-0.8456,-0.8456,0,-0.8579,-0.8573,-0.8561,-0.8556,-0.855,-0.8541,-0.8535,-0.8528,-0.852,-0.8514,-0.8506,-0.8501,-0.8489,-0.8483,-0.8475,-0.8469,-0.8466,-0.8462,-0.846,-0.8463,-0.8464,-0.846,-0.846,-0.8456,-0.8456,-0.8456,-0.8456,0,-0.8583,-0.8574,-0.8566,-0.8555,-0.8552,-0.8548,-0.8538,-0.8533,-0.8526,-0.8519,-0.8517,-0.8506,-0.8498,-0.8488,-0.8477,-0.8472,-0.8466,-0.8463,-0.847,-0.8469,-0.847,-0.847,-0.8472,-0.8472,-0.8464,-0.8464,-0.8464,0,-0.8583,-0.8579,-0.8567,-0.8563,-0.8558,-0.8551,-0.8546,-0.8537,-0.8532,-0.8522,-0.8519,-0.851,-0.8503,-0.8491,-0.8482,-0.8473,-0.847,-0.8472,-0.8469,-0.8472,-0.8471,-0.8472,-0.8471,-0.8472,-0.8473,-0.8473,-0.8473,0,-0.8584,-0.858,-0.8574,-0.8566,-0.8561,-0.8554,-0.8547,-0.8544,-0.8533,-0.8528,-0.8521,-0.8515,-0.8505,-0.8497,-0.8487,-0.8481,-0.8476,-0.8474,-0.8474,-0.8476,-0.848,-0.8479,-0.8472,-0.8474,-0.8474,-0.8474,-0.8474,-0.8473,-0.8586,-0.8583,-0.8575,-0.8568,-0.8562,-0.8556,-0.8551,-0.8545,-0.8538,-0.8529,-0.8524,-0.8517,-0.8509,-0.8496,-0.849,-0.8485,-0.8482,-0.8482,-0.8481,-0.8481,-0.8483,-0.8482,-0.8483,-0.8483,-0.8483,-0.8483,-0.8483,0,-0.8587,-0.8582,-0.8576,-0.8567,-0.8562,-0.8558,-0.855,-0.8546,-0.854,-0.8533,-0.8527,-0.8519,-0.8511,-0.8502,-0.8495,-0.8492,-0.8489,-0.849,-0.849,-0.8489,-0.8485,-0.8486,-0.8493,-0.8493,-0.8493,-0.8493,-0.8493,-0.8493,-0.8587,-0.8581,-0.8577,-0.8569,-0.8563,-0.8557,-0.8553,-0.8548,-0.8542,-0.8534,-0.8528,-0.8522,-0.8515,-0.8507,-0.85,-0.8498,-0.8496,-0.8497,-0.8494,-0.849,-0.8489,-0.8488,-0.849,-0.8497,-0.8497,-0.8499,-0.8499,-0.8499]},{"header":{"parameterUnit":"m.s-1","parameterCategory":1,"la1":30.2991,"la2":30.254,"lo1":-89.0895,"lo2":-89.0444,"dy":0.0017,"dx":0.0017,"nx":28,"ny":28,"refTime":"2024-03-16T21:00:00:Z","depth":0,"parameterNumber":3,"parameterNumberName":"V-component_of_WINDS"},"data":[0,0,0,0,0,0,0,0,0,0,0,0,0,0,0,0,0,0,0,0,0,0,0,0,0,0,0,0,0,0,0,0,0,0,0,0,0,0,0,0,0,0,0,0,0,0,0,0,0,0,0,0,0,0,0,0,0,0,0.3933,0.3934,0,0.3992,0.3993,0.3994,0.4026,0.4026,0.4026,0.4026,0.4085,0.4086,0.4088,0,0,0,0,0,0,0,0,0,0,0,0,0,0.3844,0.3845,0.3933,0.3934,0.3934,0.3992,0.3993,0.3994,0.4026,0.4026,0.4026,0.4026,0.4084,0.4086,0.4088,0,0,0,0,0,0,0,0,0,0,0,0,0,0.3891,0.3846,0.3933,0.3957,0.396,0.3992,0.3993,0.3994,0.4026,0.4026,0.4026,0.4026,0.4084,0.4086,0.4088,0.4099,0,0,0.4095,0.4096,0,0,0,0,0,0,0,0,0.3888,0.3894,0.3953,0.3956,0.3959,0.4002,0.3983,0.4029,0.4026,0.4001,0.4026,0.4026,0.4057,0.4061,0.4072,0.4102,0.4104,0.4095,0.4096,0.4097,0.4098,0,0,0,0,0,0,0,0.3885,0.3891,0.3956,0.3954,0.3957,0.3964,0.3971,0.3992,0.4027,0.4003,0.4005,0.4012,0.4058,0.407,0.4074,0.4105,0.4095,0.4097,0.4098,0.4099,0.4145,0.4144,0,0,0,0,0,0,0.3878,0.3889,0.3954,0.3958,0.3923,0.3966,0.3973,0.3988,0.4027,0.4033,0.4012,0.4013,0.4066,0.4071,0.4076,0.409,0.4097,0.4099,0.4101,0.4145,0.4145,0.4144,0,0,0,0,0,0,0.3876,0.3883,0.3952,0.3924,0.3933,0.3967,0.3983,0.3989,0.4001,0.4034,0.404,0.4017,0.4066,0.4073,0.4093,0.4093,0.41,0.4102,0.4145,0.4145,0.4144,0.412,0,0,0,0,0,0,0.3873,0.3883,0.3888,0.3924,0.3935,0.3969,0.3983,0.399,0.4004,0.4007,0.4041,0.4046,0.4067,0.4089,0.4095,0.4096,0.4104,0.4145,0.4145,0.4145,0.4121,0.4119,0.4117,0,0,0,0,0,0.387,0.3879,0.3888,0.3896,0.3943,0.3969,0.3975,0.3999,0.4004,0.401,0.4031,0.4045,0.4092,0.4091,0.4098,0.4099,0.4145,0.4145,0.4145,0.4121,0.4119,0.4117,0,0,0,0,0,0,0.3842,0.3884,0.3895,0.3916,0.3939,0.3975,0.3982,0.3996,0.4017,0.4019,0.4047,0.4054,0.4071,0.4087,0.4086,0.4111,0.412,0.4121,0.41,0.4098,0.4096,0.4091,0.4106,0,0,0,0,0,0.3839,0.3858,0.3893,0.3908,0.3919,0.3948,0.3961,0.3977,0.4001,0.4011,0.4034,0.4056,0.4075,0.4087,0.4107,0.4123,0.413,0.4127,0.4125,0.4123,0.4124,0.4131,0.413,0.4143,0.4143,0.4143,0,0,0.3832,0.3857,0.3867,0.3903,0.3923,0.394,0.3956,0.3975,0.3987,0.4013,0.4034,0.4051,0.4077,0.4094,0.4103,0.4108,0.4121,0.4123,0.4121,0.4123,0.4131,0.4129,0.4128,0.4143,0.4143,0.4143,0,0,0.3828,0.3849,0.3863,0.3882,0.3911,0.393,0.3933,0.3966,0.3979,0.3999,0.4018,0.4033,0.4067,0.4084,0.4097,0.4097,0.411,0.4102,0.4093,0.4099,0.4098,0.4097,0.4096,0.4095,0.4103,0.4103,0.4102,0,0.3815,0.3843,0.3869,0.3885,0.39,0.3924,0.3937,0.3954,0.3987,0.3996,0.4002,0.4042,0.4062,0.4083,0.4082,0.4093,0.4096,0.4099,0.4096,0.4096,0.4095,0.4094,0.4093,0.4101,0.4101,0.4102,0.4102,0,0.3825,0.3844,0.3852,0.3884,0.3899,0.3914,0.394,0.3952,0.3966,0.3984,0.4003,0.4027,0.4051,0.4057,0.4072,0.4079,0.4081,0.4091,0.4101,0.4092,0.4091,0.4091,0.41,0.41,0.41,0.4101,0,0,0.3808,0.3851,0.3854,0.3867,0.39,0.3914,0.3929,0.3953,0.3962,0.3983,0.3996,0.4022,0.403,0.4045,0.4061,0.4067,0.4063,0.4076,0.4077,0.4072,0.4071,0.4063,0.4062,0.4072,0.4072,0.4072,0.4068,0,0.3808,0.3837,0.3858,0.3878,0.3895,0.3916,0.3929,0.3949,0.3966,0.3981,0.3999,0.4017,0.4028,0.4036,0.4043,0.4062,0.4063,0.4063,0.4082,0.4083,0.4075,0.4062,0.4054,0.4049,0.4068,0.4068,0.4068,0,0.3812,0.3832,0.3854,0.3882,0.389,0.3901,0.3923,0.3938,0.3961,0.3972,0.3987,0.4003,0.4018,0.4026,0.4045,0.4045,0.4054,0.4064,0.4064,0.4067,0.4075,0.4063,0.4048,0.4047,0.4068,0.4068,0.4068,0,0.3795,0.3828,0.3845,0.3856,0.389,0.3896,0.3911,0.3933,0.3945,0.3964,0.3972,0.3992,0.4003,0.4017,0.4038,0.4042,0.4055,0.4064,0.4063,0.4062,0.4065,0.4065,0.4051,0.4072,0.4072,0.4072,0.4072,0,0.3793,0.3805,0.3837,0.3847,0.386,0.3884,0.3896,0.3912,0.3932,0.3944,0.3964,0.3975,0.4001,0.4015,0.4031,0.4044,0.4049,0.4057,0.4061,0.4055,0.4054,0.4061,0.4062,0.4072,0.4072,0.4072,0.4072,0,0.3777,0.3799,0.3819,0.3848,0.3856,0.3864,0.3889,0.3898,0.3915,0.393,0.3935,0.3961,0.3978,0.3999,0.4023,0.4034,0.4044,0.4051,0.4037,0.4039,0.4036,0.4035,0.4026,0.4025,0.4047,0.4047,0.4047,0,0.3774,0.3784,0.3814,0.3823,0.3837,0.3852,0.3864,0.3887,0.3898,0.3923,0.3929,0.3947,0.3963,0.3989,0.4009,0.4026,0.4033,0.4028,0.4036,0.4029,0.4031,0.403,0.403,0.4026,0.4026,0.4026,0.4026,0,0.3766,0.3775,0.3792,0.3812,0.3825,0.3842,0.386,0.3866,0.3892,0.3903,0.3921,0.3933,0.3956,0.3973,0.3993,0.4006,0.4019,0.4023,0.4023,0.4017,0.4008,0.4011,0.4031,0.4023,0.4023,0.4024,0.4024,0.4024,0.3756,0.3764,0.3786,0.3803,0.3818,0.3833,0.3843,0.386,0.3875,0.3896,0.3908,0.3924,0.3944,0.3972,0.3984,0.3996,0.4001,0.4002,0.4003,0.4002,0.3999,0.4006,0.4,0.4,0.4,0.4,0.4,0,0.3747,0.3762,0.3777,0.38,0.3813,0.3824,0.3843,0.3853,0.3867,0.3884,0.3899,0.3917,0.3933,0.3954,0.3971,0.3976,0.3982,0.398,0.3979,0.3982,0.3995,0.3992,0.3974,0.3974,0.3974,0.3974,0.3974,0.3974,0.3745,0.3759,0.3771,0.3792,0.3806,0.3822,0.3831,0.3845,0.3858,0.3878,0.3891,0.3904,0.3922,0.394,0.3955,0.396,0.3965,0.396,0.3967,0.3979,0.3981,0.3983,0.3981,0.3961,0.3961,0.3953,0.3953,0.3953]}]]